Location: Del Amo
(33.8464°N, 118.2104°W)
Time: 18:06:10
(UTC+00:00)

Vanguard 3 - Pass Details

Date: 14 September 2024
Orbit: 507 x 3224 km, 33.4° (Epoch: 05 October)

Event Time Altitude Azimuth Distance (km) Brightness Sun altitude
Rises 17:45:30 0° 271° (W) 7,181 11.7 48.0°
Reaches altitude 10° 17:50:27 10° 272° (W) 6,122 11.4 48.7°
Maximum altitude 18:09:37 87° 186° (S) 2,547 10.7 51.5°
Drops below altitude 10° 18:21:39 10° 98° (E) 4,089 11.3 53.2°
Sets 18:24:16 0° 98° (E) 4,784 11.5 53.5°
